Jackson, NJ

8:36 AM EST on December 08, 2016 (GMT -0500)
Lakehurst Naes

Weather History for KNEL - May, 2013

Change the Weather History Date:

Thursday, May 16, 2013

  Actual Average Record
Temperature  
Mean Temperature 75 °F -  
Max Temperature 64 °F 67 °F 81 °F (2002)
Min Temperature 59 °F 50 °F 37 °F (2000)
Cooling Degree Days 10    
Growing Degree Days 25 (Base 50)    
Moisture  
Dew Point 57 °F    
Average Humidity 57    
Maximum Humidity 87    
Minimum Humidity 31    
Precipitation  
Precipitation 0.00 in - - ()
Sea Level Pressure  
Sea Level Pressure 29.77 in    
Wind  
Wind Speed 3 mph (WSW)    
Max Wind Speed 10 mph    
Max Gust Speed -    
Averages and records for this station are not official NWS values.
T = Trace of Precipitation, MM = Missing Value Source: NWS Daily Summary

Daily Weather History Graph

Daily Weather History Graph

Search for Another Location

Airport or City:

Trip Planner

Search our weather history database for the weather conditions in past years. The results will help you decide how hot, cold, wet, or windy it might be!

Date:

Astronomy

May. 16, 2013 Rise Set
Actual Time 5:40 AM EDT 8:07 PM EDT
Civil Twilight 5:10 AM EDT 8:38 PM EDT
Nautical Twilight 4:32 AM EDT 9:16 PM EDT
Astronomical Twilight 3:49 AM EDT 9:58 PM EDT
Moon 11:11 AM EDT (5/16) 12:26 AM EDT (5/16)
Length of Visible Light 15h 27m
Length of Day
14h 26m
Waxing Crescent, 35% of the Moon is Illuminated
May 16
Waxing Crescent
May 18
First Quarter
May 25
Full
May 31
Last Quarter
Jun 8
New

Hourly Weather History & Observations

Time (EDT) Temp. Heat Index Dew Point Humidity Pressure Visibility Wind Dir Wind Speed Gust Speed Precip Events Conditions
12:00 AM 71.1 °F - 57.0 °F 61% 29.70 in - WSW 4.6 mph - N/A   Clear
1:00 AM 66.9 °F - 57.9 °F 73% 29.73 in - Calm Calm - N/A   Clear
2:00 AM 63.0 °F - 57.0 °F 81% 29.71 in - Calm Calm - N/A   Clear
3:00 AM 61.0 °F - 55.9 °F 83% 29.71 in - Calm Calm - N/A   Clear
4:00 AM 60.1 °F - 54.0 °F 80% 29.72 in - Calm Calm - N/A   Clear
5:00 AM 59.0 °F - 55.0 °F 87% 29.72 in - Calm Calm - N/A   Clear
6:00 AM 64.0 °F - 53.1 °F 67% 29.74 in - NW 3.5 mph - N/A   Clear
7:00 AM 69.1 °F - 55.9 °F 63% 29.77 in - Calm Calm - N/A   Clear
8:00 AM 72.0 °F - 59.0 °F 64% 29.79 in - Calm Calm - N/A   Partly Cloudy
9:00 AM 73.0 °F - 59.0 °F 61% 29.82 in - Calm Calm - N/A   Overcast
9:11 AM 78.8 °F - 60.8 °F 54% 29.86 in - WNW 6.9 mph - N/A Rain , Thunderstorm Light Thunderstorms and Rain
10:00 AM 68.0 °F - 60.1 °F 76% 29.82 in - Calm Calm - N/A Rain , Thunderstorm Light Thunderstorms and Rain
10:22 AM 78.8 °F - 59.0 °F 51% 29.80 in - SE 4.6 mph - N/A   Scattered Clouds
11:00 AM 77.0 °F - 55.9 °F 48% 29.80 in - SSE 3.5 mph - N/A   Partly Cloudy
12:00 PM 80.1 °F 80.1 °F 55.0 °F 42% 29.81 in - Calm Calm - N/A   Clear
1:00 PM 84.9 °F - 51.1 °F 31% 29.81 in - Variable 5.8 mph - N/A   Overcast
2:00 PM 84.0 °F 82.5 °F 53.1 °F 34% 29.79 in - Calm Calm - N/A   Mostly Cloudy
3:00 PM 89.1 °F 87.7 °F 57.0 °F 34% 29.77 in - WSW 6.9 mph - N/A   Overcast
4:00 PM 91.0 °F 90.5 °F 60.1 °F 35% 29.75 in - WSW 10.4 mph - N/A   Scattered Clouds
5:00 PM 89.1 °F 88.8 °F 60.1 °F 38% 29.75 in - West 9.2 mph - N/A   Partly Cloudy
6:00 PM 91.0 °F 90.5 °F 60.1 °F 35% 29.74 in - WSW 9.2 mph - N/A   Clear
7:00 PM 89.1 °F 88.8 °F 60.1 °F 38% 29.76 in - SW 5.8 mph - N/A   Partly Cloudy
8:00 PM 82.9 °F 81.9 °F 54.0 °F 37% 29.78 in - South 5.8 mph - N/A   Clear
9:00 PM 71.1 °F - 57.0 °F 61% 29.79 in - Calm Calm - N/A   Clear
10:00 PM 68.0 °F - 59.0 °F 73% 29.81 in - Calm Calm - N/A   Clear
11:00 PM 73.9 °F - 61.0 °F 64% 29.81 in - West 4.6 mph - N/A   Clear